IRNSS-1F

Last updated on Wed Sep 09 2026 00:03:01 GMT+0000 (Coordinated Universal Time)

1 41384U 16015A 26251.23762251 .00000138 00000+0 00000+0 0 9997 2 41384 5.5526 94.8610 0019684 175.3677 195.0667 1.00272873 38507
UTC large
Height (km)
Speed (km/s)
/
Latitude / Longitude
Inclination (degrees)
Orbital Period (minutes)
Azimuth
Elevation
Range (km)
Doppler Factor

Next 0 passes for location: London (51.5072 / 0.1276)

No passes found over London.
IRNSS-1F